Regional Weather Roundup
Issued by NWS

Home | Current Version | Previous Version | Graphics & Text | Print | Product List | Glossary On
Versions: 1 2 3 4 5 6 7 8 9 10 11 12 13 14 15 16 17 18 19 20 21 22 23 24 25 26 27 28 29 30 31 32 33 34 35 36 37 38 39 40 41 42 43 44 45 46 47 48 49 50
000
ASUS43 KFSD 261610
RWRSD

WEATHER ROUNDUP FOR SOUTH DAKOTA
NATIONAL WEATHER SERVICE SIOUX FALLS SD
1000 AM CST MON JAN 26 2015

NOTE: "FAIR" INDICATES FEW OR NO CLOUDS BELOW 12,000 FEET WITH NO
SIGNIFICANT WEATHER AND/OR OBSTRUCTIONS TO VISIBILITY.


SDZ001>005-009-010-012>017-261700-
NORTHWEST AND NORTH CENTRAL SOUTH DAKOTA

CITY           SKY/WX    TMP DP  RH WIND       PRES   REMARKS
BUFFALO          N/A     47  32  56 W10       29.93S
FAITH            N/A     44  30  57 NW13      29.98R
MOBRIDGE       SUNNY     41  35  79 NW9       29.91R
$$

SDZ012>016-024>037-041>051-057-063-072>074-261700-
SOUTHWEST AND SOUTH CENTRAL SOUTH DAKOTA

CITY           SKY/WX    TMP DP  RH WIND       PRES   REMARKS
RAPID CTY ARPT SUNNY     57  29  34 NW5       30.05R
PIERRE         SUNNY     45  34  65 W12       29.96R
CUSTER         MOSUNNY   45  25  45 SW3       30.12R
ELLSWORTH AFB  SUNNY     58  30  35 NW17      30.03S
PHILIP         SUNNY     47  32  56 W8        30.01R
PINE RIDGE     SUNNY     43  31  62 SW6       30.10R
SPEARFISH      FAIR      55  28  35 W14       30.09R
WINNER         FAIR      49  34  56 W16       29.98R
$$

SDZ004>011-016>023-039-040-261700-
NORTHEAST SOUTH DAKOTA

CITY           SKY/WX    TMP DP  RH WIND       PRES   REMARKS
ABERDEEN       SUNNY     39  32  76 W9        29.87R
WATERTOWN      SUNNY     37  31  78 W12       29.82R
SISSETON         N/A     40  33  76 NW22G30   29.79R
$$

SDZ017-020-022-023-036>040-048>070-261700-
SOUTHEAST SOUTH DAKOTA

CITY           SKY/WX    TMP DP  RH WIND       PRES   REMARKS
SIOUX FALLS    MOSUNNY   40  35  83 NW13G21   29.85R
HURON          SUNNY     41  35  79 NW15      29.89R
CHAMBERLAIN    SUNNY     44  35  70 W13       29.96R
MITCHELL       MOSUNNY   42  36  79 W13       29.91R
YANKTON        MOSUNNY   43  36  75 NW17      29.90S
$$

ABBREVIATIONS USED IN REMARKS
   TC - TEMPERATURE IN CELSIUS
  WCI - WIND CHILL INDEX
   HX - HEAT INDEX
  VSB - VISIBILITY




USA.gov is the U.S. government's official web portal to all federal, state and local government web resources and services.